Weather History for Ogden Hill AFB, UT

Change the Weather History Date:

Sunday, February 24, 2013

  Actual Average Record
Temperature  
Mean Temperature 20 °F -  
Max Temperature 30 °F 37 °F 57 °F (1999)
Min Temperature 10 °F 23 °F 10 °F (2013)
Degree Days  
Heating Degree Days 45    
Moisture  
Dew Point 12 °F    
Average Humidity 79    
Maximum Humidity 93    
Minimum Humidity 44    
Precipitation  
Precipitation 0.00 in - - ()
Sea Level Pressure  
Sea Level Pressure 30.09 in    
Wind  
Wind Speed 3 mph (SW)    
Max Wind Speed 9 mph    
Max Gust Speed -    
Visibility 6 miles    
Events Fog    
Averages and records for this station are not official NWS values.
T = Trace of Precipitation, MM = Missing Value Source: NWS Daily Summary

Daily Weather History Graph

Daily Weather History Graph

Search for Another Location

Airport:

Trip Planner

Search our weather history database for the weather conditions in past years. The results will help you decide how hot, cold, wet, or windy it might be!

Date:

Astronomy

Feb. 24, 2013 Rise Set
Actual Time 7:09 AM MST 6:13 PM MST
Civil Twilight 6:41 AM MST 6:41 PM MST
Nautical Twilight 6:09 AM MST 7:13 PM MST
Astronomical Twilight 5:37 AM MST 7:45 PM MST
Moon 5:28 PM MST (2/24) 6:08 AM MST (2/24)
Length of Visible Light 11h 59m
Length of Day
11h 04m
Waxing Gibbous, 99% of the Moon is Illuminated
Feb 24
Waxing Gibbous
Feb 25
Full
Mar 4
Last Quarter
Mar 11
New
Mar 19
First Quarter

Hourly Weather History & Observations

Time (MST) Temp. Windchill Dew Point Humidity Pressure Visibility Wind Dir Wind Speed Gust Speed Precip Events Conditions
12:28 AM 15.8 °F - 12.2 °F 86% 29.97 in 2.5 mi SSE 2.3 mph - N/A   Partly Cloudy
12:33 AM 15.8 °F - 12.2 °F 86% 29.97 in 1.2 mi South 2.3 mph - N/A   Partly Cloudy
12:38 AM 15.8 °F - 14.0 °F 93% 29.97 in 2.5 mi SSE 1.2 mph - N/A   Partly Cloudy
12:43 AM 17.6 °F - 15.8 °F 93% 29.97 in 10.0 mi SSE 2.3 mph - N/A   Partly Cloudy
12:58 AM 17.2 °F 10.2 °F 14.2 °F 88% 30.07 in 10.0 mi South 4.6 mph - N/A   Clear
1:18 AM 14.0 °F 8.2 °F 12.2 °F 93% 29.98 in 2.5 mi South 3.5 mph - N/A   Clear
1:23 AM 14.0 °F 8.2 °F 10.4 °F 86% 29.98 in 1.0 mi SSW 3.5 mph - N/A   Clear
1:28 AM 12.2 °F 4.3 °F 10.4 °F 92% 29.98 in 0.8 mi South 4.6 mph - N/A   Clear
1:33 AM 12.2 °F 4.3 °F 10.4 °F 92% 29.98 in 0.5 mi South 4.6 mph - N/A Fog Light Freezing Fog
1:38 AM 12.2 °F 4.3 °F 8.6 °F 85% 29.98 in 0.2 mi South 4.6 mph - N/A Fog Light Freezing Fog
1:48 AM 12.2 °F 4.3 °F 10.4 °F 92% 29.98 in 0.8 mi South 4.6 mph - N/A   Clear
1:53 AM 12.2 °F 6.1 °F 10.4 °F 92% 29.98 in 1.2 mi South 3.5 mph - N/A   Clear
1:58 AM 10.4 °F 4.0 °F 6.8 °F 85% 30.11 in 0.8 mi South 3.5 mph - N/A   Clear
2:03 AM 12.2 °F - 8.6 °F 85% 29.99 in 0.8 mi South 2.3 mph - N/A   Clear
2:08 AM 12.2 °F - 8.6 °F 85% 29.99 in 0.5 mi South 1.2 mph - N/A Fog Light Freezing Fog
2:13 AM 12.2 °F - 10.4 °F 92% 29.99 in 0.8 mi SSW 2.3 mph - N/A   Clear
2:18 AM 12.2 °F 6.1 °F 8.6 °F 85% 29.99 in 0.8 mi SSW 3.5 mph - N/A   Clear
2:23 AM 12.2 °F 6.1 °F 8.6 °F 85% 29.99 in 0.8 mi SW 3.5 mph - N/A   Clear
2:28 AM 12.2 °F - 8.6 °F 85% 29.99 in 1.2 mi SW 2.3 mph - N/A   Clear
2:33 AM 14.0 °F - 10.4 °F 86% 29.99 in 0.5 mi SW 2.3 mph - N/A Fog Light Freezing Fog
2:38 AM 14.0 °F - 10.4 °F 86% 29.99 in 0.2 mi South 2.3 mph - N/A Fog Light Freezing Fog
2:48 AM 14.0 °F - 10.4 °F 86% 29.99 in 0.5 mi South 2.3 mph - N/A Fog Light Freezing Fog
2:53 AM 15.8 °F - 12.2 °F 86% 29.99 in 0.8 mi SW 2.3 mph - N/A   Mostly Cloudy
2:58 AM 16.3 °F - 13.3 °F 88% 30.09 in 1.5 mi WSW 2.3 mph - N/A   Mostly Cloudy
3:03 AM 17.6 °F 12.3 °F 15.8 °F 93% 29.98 in 4.0 mi WSW 3.5 mph - N/A   Scattered Clouds
3:08 AM 19.4 °F - 15.8 °F 86% 29.99 in 5.0 mi WSW 2.3 mph - N/A   Scattered Clouds
3:13 AM 19.4 °F - 15.8 °F 86% 29.99 in 4.0 mi West 2.3 mph - N/A   Partly Cloudy
3:23 AM 17.6 °F - 14.0 °F 86% 29.99 in 1.0 mi Calm Calm - N/A   Clear
3:28 AM 17.6 °F 12.3 °F 14.0 °F 86% 29.99 in 0.8 mi ESE 3.5 mph - N/A   Clear
3:33 AM 17.6 °F - 14.0 °F 86% 29.99 in 2.0 mi ESE 2.3 mph - N/A   Clear
3:38 AM 19.4 °F - 15.8 °F 86% 29.98 in 8.0 mi SE 2.3 mph - N/A   Clear
3:58 AM 18.5 °F - 15.4 °F 88% 30.08 in 7.0 mi Calm Calm - N/A   Clear
4:23 AM 17.6 °F - 15.8 °F 93% 29.99 in 3.0 mi West 2.3 mph - N/A   Clear
4:28 AM 17.6 °F - 14.0 °F 86% 29.99 in 2.5 mi West 1.2 mph - N/A   Clear
4:33 AM 17.6 °F - 15.8 °F 93% 30.00 in 7.0 mi WSW 2.3 mph - N/A   Clear
4:48 AM 19.4 °F - 15.8 °F 86% 30.00 in 10.0 mi WNW 2.3 mph - N/A   Mostly Cloudy
4:58 AM 19.2 °F 11.3 °F 16.3 °F 89% 30.09 in 10.0 mi NW 5.8 mph - N/A   Mostly Cloudy
5:23 AM 19.4 °F - 15.8 °F 86% 30.01 in 10.0 mi NNE 2.3 mph - N/A   Scattered Clouds
5:43 AM 19.4 °F 14.3 °F 15.8 °F 86% 30.02 in 10.0 mi NNE 3.5 mph - N/A   Mostly Cloudy
5:58 AM 18.9 °F 9.8 °F 16.0 °F 89% 30.12 in 10.0 mi WNW 6.9 mph - N/A   Mostly Cloudy
6:03 AM 17.6 °F 10.7 °F 15.8 °F 93% 30.03 in 10.0 mi NW 4.6 mph - N/A   Scattered Clouds
6:58 AM 16.3 °F 4.9 °F 13.3 °F 88% 30.16 in 10.0 mi WNW 9.2 mph - N/A   Scattered Clouds
7:03 AM 15.8 °F - 12.2 °F 86% 30.05 in 10.0 mi NW 2.3 mph - N/A   Mostly Cloudy
7:33 AM 14.0 °F 5.1 °F 10.4 °F 86% 30.05 in 10.0 mi NW 5.8 mph - N/A   Scattered Clouds
7:58 AM 14.5 °F 5.7 °F 11.5 °F 88% 30.19 in 10.0 mi North 5.8 mph - N/A   Clear
8:58 AM 18.5 °F - 13.3 °F 80% 30.21 in 10.0 mi NE 1.2 mph - N/A   Clear
9:58 AM 20.8 °F - 11.7 °F 68% 30.22 in 10.0 mi ENE 1.2 mph - N/A   Clear
10:05 AM 23.0 °F 18.4 °F 10.4 °F 59% 30.12 in 10.0 mi ENE 3.5 mph - N/A   Clear
10:15 AM 23.0 °F - 10.4 °F 59% 30.12 in 10.0 mi NE 2.3 mph - N/A   Clear
10:58 AM 24.3 °F 17.3 °F 12.2 °F 60% 30.22 in 10.0 mi West 5.8 mph - 0.00 in   Clear
11:58 AM 26.1 °F - 12.4 °F 56% 30.24 in 10.0 mi NNW 2.3 mph - N/A   Clear
12:58 PM 28.8 °F 23.7 °F 16.0 °F 59% 30.25 in 10.0 mi WNW 4.6 mph - N/A   Clear
1:58 PM 28.8 °F 25.0 °F 12.2 °F 50% 30.27 in 10.0 mi West 3.5 mph - N/A   Clear
2:58 PM 30.2 °F 24.3 °F 11.7 °F 46% 30.25 in 10.0 mi NNW 5.8 mph - N/A   Clear
3:58 PM 30.4 °F 22.2 °F 10.9 °F 44% 30.27 in 10.0 mi WNW 9.2 mph - N/A   Clear
4:58 PM 29.7 °F 22.0 °F 10.8 °F 45% 30.28 in 10.0 mi NW 8.1 mph - N/A   Clear
5:58 PM 27.1 °F - 10.9 °F 51% 30.31 in 10.0 mi NW 2.3 mph - N/A   Clear
6:58 PM 20.7 °F - 9.9 °F 63% 30.35 in 10.0 mi South 2.3 mph - N/A   Clear
7:58 PM 21.0 °F 16.2 °F 9.3 °F 61% 30.37 in 10.0 mi SSE 3.5 mph - N/A   Clear
8:58 PM 19.2 °F 12.5 °F 8.4 °F 63% 30.37 in 10.0 mi South 4.6 mph - N/A   Clear
9:58 PM 19.8 °F 11.9 °F 7.3 °F 59% 30.35 in 10.0 mi ESE 5.8 mph - N/A   Clear
10:58 PM 18.5 °F 8.4 °F 8.4 °F 65% 30.35 in 10.0 mi ESE 8.1 mph - N/A   Clear
11:58 PM 17.6 °F 6.4 °F 6.1 °F 61% 30.35 in 10.0 mi ESE 9.2 mph - N/A   Clear